loading
DOY 175 | 2024-06-23T12:00:47Z

THOR ABLESTAR DEB, 123

Orbit data source: Space-Track

THOR ABLESTAR DEB, 123 is space debris in LEO originally from a launch on Thu, 29 Jun 1961 UTC launched from the Air Force Eastern Test Range (AFETR). Debris objects in space refer to the collection of defunct objects orbiting the Earth. Examples of debris include non-operational satellites, rocket bodies, and fragments generated from explosions, collisions, or faulty payload assembly.

Loading next visibility...
Loading greatness...
THOR ABLESTAR DEB details
NORAD ID123
COSPAR ID
1961-015H
Orbit
LEO
Last TLE update8 hours ago
Origin
Flag of USUSAF SSD (US)
ManufacturerUnknown
BusUnknown
MotorUnknown
MassWet unknown, Dry mass unknown
Launch date (UTC)
1961-06-29 (63 years ago)
Launch vehicleUnknown
Launch site
Air Force Eastern Test Range (AFETR)
Object type
Payload
Rocket body
Debris
Radar Cross SectionMedium (>0.1 m² and <1 m²)
Predictive object data (real-time)
Latitude-60.18369°
Longitude89.51028°
Altitude856.405 km
Speed7.386 km/s
Apparent Right ascension08h 26m 07s
Apparent Declination-62° 27' 06"
Sunlit
Object is in daylight
Predictive observer data (real-time)
Local Sidereal Time23:08:55
Azimuth146.465° SSE
Elevation-56.915°
Doppler factor1
Orbital elements
Apogee833.248 km
Perigee685.391 km
Semi-major axis7,137.457 km
Eccentricity0.0103578
Inclination66.6844°
RAAN196.5973°
Arg. of periapsis79.4579°
True anomaly280.65243°
Mean anomaly281.8172°
Mean motion3.59938 °/min
BSTAR0.00027247
Period100.02 mins
Definitive object data (Epoch: 2024-06-23T04:11:16.744Z)
Latitude-0.00007°
Longitude-138.04976°
Altitude748.656 km
Speed7.488 km/s
True Right ascension13h 06m 23s
True Declination0° 00' 00"
Sunlit
Object was in daylight at TLE epoch
TLE from 8 hours ago
0 THOR ABLESTAR DEB
1   123U 61015H   24175.17449936  .00000809  00000-0  27247-3 0  9993
2   123  66.6844 196.5973 0103578  79.4579 281.8172 14.39258274275779
Epoch: 2024-06-23T04:11Z
No data available

THOR ABLESTAR DEB Visibility forecast

Observer location: 39.9160978°, -105.1181434, 0m alt.

THOR ABLESTAR DEB is not visible in the next 10 days
Span
Click to sort rows by Start time (UTC) header in descending order
Start Az.
Max El. time (UTC)
Max El. Az.
Max El.
End time (UTC)
End Az.